Flag for Germany Weather past 2 weeks in Ettlingen, Baden-Württemberg, Germany

Now
39 °F

Passing clouds.


Feels Like: 32 °F
Forecast: 35 / 49 °F
Wind: 12 mph from Southwest

Location: Karlsruhe - Baden Wurttemberg

Current Time: Apr 1, 2015 at 6:50:35 AM

Latest Report: Apr 1, 2015 at 6:20 AM


Visibility: N/A

Pressure: 30.07 "Hg

Humidity: 81%

Dew point: 34 °F

Location of EttlingenLocation

Historic Weather in Ettlingen — Graph

°F

Ettlingen temperature yesterday

Maximum temperature yesterday: 57 °F (at 6:50 AM)
Minimum temperature yesterday: 39 °F (at 9:50 PM)
Average temperature yesterday: 51 °F

Past Weeks' High & Low Weather Summary

 TemperatureHumidityPressure
High64 °F (Mar 18, 2:50 PM)100% (Mar 18, 7:50 AM)30.27 "Hg (Mar 18, 7:50 AM)
Low30 °F (Mar 24, 5:20 AM)33% (Mar 30, 5:20 PM)29.59 "Hg (Mar 29, 9:20 PM)
Average48 °F66%29.98 "Hg
* Reported Mar 17 4:50 AM — Apr 1 5:50 AM, Ettlingen, Weather by CustomWeather, © 2015

Note: Actual official high and low records may vary slightly from our data, if they occured in-between our weather recording intervals... More about our weather records

Advertising

Ettlingen weather history for previous 24 hours

 ConditionsComfort  
Time TempWeatherWind HumidityBarometerVisibility
5:50 AM
Wed, Apr 1
39 °FPassing clouds.10 mph81%30.07 "HgN/A
5:20 AM39 °FPassing clouds.12 mph75%30.04 "HgN/A
4:50 AM39 °FPassing clouds.10 mph75%30.04 "HgN/A
12:20 AM48 °FPassing clouds.16 mph50%29.98 "HgN/A
11:50 PM
Tue, Mar 31
48 °FPassing clouds.13 mph58%29.98 "HgN/A
11:20 PM46 °FPassing clouds.9 mph66%29.95 "HgN/A
10:50 PM41 °FScattered showers. Passing clouds.9 mph87%29.95 "HgN/A
10:20 PM41 °FScattered showers. Partly cloudy.10 mph87%29.95 "HgN/A
9:50 PM39 °FPassing clouds.6 mph93%29.95 "HgN/A
9:20 PM41 °FPassing clouds.10 mph87%29.95 "HgN/A
8:50 PM43 °FPartly sunny.9 mph81%29.95 "HgN/A
8:20 PM43 °FRain. Broken clouds.7 mph81%29.95 "Hg4 mi
7:50 PM43 °FScattered showers. Scattered clouds.8 mph76%29.92 "HgN/A
7:20 PM45 °FScattered showers. Scattered clouds.9 mph76%29.92 "HgN/A
6:50 PM45 °FScattered showers. Scattered clouds.9 mph76%29.92 "HgN/A
6:20 PM43 °FScattered showers. Scattered clouds.13 mph81%29.92 "Hg6 mi
5:50 PM52 °FScattered showers. Scattered clouds.22 mph58%29.86 "HgN/A
5:20 PM50 °FScattered showers. Scattered clouds.17 mph67%29.83 "HgN/A
4:50 PM50 °FScattered showers. Scattered clouds.16 mph67%29.83 "HgN/A
4:20 PM54 °FScattered showers. Passing clouds.17 mph54%29.80 "HgN/A
3:50 PM50 °FScattered showers. Scattered clouds.26 mph67%29.80 "Hg6 mi
3:20 PM52 °FScattered showers. Scattered clouds.22 mph62%29.77 "HgN/A
2:50 PM54 °FScattered showers. Partly sunny.21 mph63%29.74 "HgN/A
2:20 PM54 °FScattered showers. Partly sunny.18 mph63%29.74 "HgN/A
1:50 PM55 °FScattered showers. Partly sunny.28 mph59%29.74 "HgN/A
1:20 PM55 °FScattered showers. Partly sunny.25 mph59%29.71 "HgN/A
12:50 PM55 °FScattered showers. Scattered clouds.22 mph59%29.71 "HgN/A
12:20 PM57 °FScattered showers. Scattered clouds.25 mph55%29.71 "HgN/A
11:50 AM55 °FScattered showers. Broken clouds.30 mph59%29.71 "HgN/A
11:20 AM55 °FSprinkles. Broken clouds.23 mph63%29.68 "HgN/A
10:50 AM57 °FScattered showers. Partly sunny.28 mph59%29.68 "HgN/A
10:20 AM57 °FSprinkles. Partly sunny.25 mph63%29.65 "HgN/A
9:50 AM57 °FScattered showers. Partly sunny.31 mph59%29.62 "HgN/A
9:20 AM57 °FScattered showers. Partly sunny.30 mph59%29.62 "HgN/A
8:50 AM57 °FSprinkles. Partly sunny.29 mph59%29.62 "Hg5 mi
8:20 AM57 °FScattered showers. Partly sunny.26 mph59%29.59 "HgN/A
7:50 AM57 °FScattered showers. Passing clouds.25 mph63%29.62 "HgN/A
7:20 AM57 °FScattered showers. Passing clouds.24 mph63%29.59 "HgN/A
6:50 AM57 °FScattered showers. Passing clouds.22 mph63%29.62 "HgN/A
6:20 AM55 °FLight rain. Partly cloudy.20 mph72%29.65 "HgN/A
Weather by CustomWeather, © 2015

See weather overviewHow to use our weather pages